DELTA 1 R/B(2), 1318

Orbit data source: Space-Track

DELTA 1 R/B(2), 1318 is space debris in HEO originally from a launch on Tue, 06 Apr 1965 UTC launched from the Air Force Eastern Test Range (AFETR). Debris objects in space refer to the collection of defunct objects orbiting the Earth. Examples of debris include non-operational satellites, rocket bodies, and fragments generated from explosions, collisions, or faulty payload assembly.

Loading next visibility...
Identifier
1318, 1965-028B
Orbit
HEO
Last TLE update
12 hours ago
Origin
Manufacturer
ABL
Mission
Spacecraft
Bus & Motor
ALTAIR, Unknown motor
Mass
33 kg wet, 33 kg dry
Launch date (UTC)
1965-04-06 (60 years ago)
Launch vehicle
Unknown
Launch site
Air Force Eastern Test Range (AFETR)
Object type
Payload
Rocket body
Debris
Shape & HBR
Cyl, 1.5 m
Radar Cross Section
0.687 m², Medium (>0.1 m² and < 1m²)

Expand to show TLE details & history

TLE from 12 hours ago
0 DELTA 1 R/B(2)
1 01318U 65028B   25129.25433759 -.00000035  00000-0  00000-0 0  9990
2 01318  18.2172  16.0333 6938523 306.5027 326.3178  2.11823106 98765
Epoch: 2025-05-09T06:06Z
Definitive object data (Epoch: 2025-05-09T06:06:14.767Z)
Latitude
-2.50065°
Longitude
-115.27451°
Altitude
13,550.762 km
Speed
4.943 km/s
True Right ascension
13h 34m 24s
True Declination
-2° 29' 43"
Sunlit
Object was in daylight at TLE epoch
Visualization TLE readout
Latitude
-17.32043°
Longitude
-52.45309°
Altitude
3,188.324 km
Speed
8.233 km/s
Apparent Right ascension
16h 37m 27s
Apparent Declination
-28° 17' 16"
Sunlit
Object is in full shadow
Visualization observer readout
Local Sidereal Time
02:24:50
Azimuth
282.817° WNW
Elevation
-60.402°
Doppler factor
1
Orbital elements
Apogee altitude
37,009.108 km
Perigee altitude
1,463.695 km
Semi-major axis
25,614.538 km
Eccentricity
0.6938523
Inclination
18.2172°
RAAN
16.0333°
Arg. of periapsis
306.5027°
True anomaly
241.26733°
Mean anomaly
326.3178°
Eccentric anomaly
288.65068°
Mean motion
0.52944 °/min
BSTAR
Unknown
Orbital period
679.97 mins
Loading maneuver chart data...
Loading SW <> Apogee altitude chart data...
Loading historical data...
Loading historical data...
Loading historical data...
Loading historical data...
Loading historical data...
Loading historical data...
Loading historical data...
Other satellites on launch #28 in the year 1965 (1965-04-06 UTC)

DELTA 1 R/B(2) Visibility forecast

Observer location: undefined°, undefined°

Span
Click to sort rows by Start time (UTC) header in descending order
Start Az.
Max El. time (UTC)
Max El. Az.
Max El.
End time (UTC)
End Az.
622 mins2025-05-09 18:49:03.919Z209.211° SW2025-05-10 01:14:03.919Z156.491° SSE39.681°2025-05-10 05:11:03.919Z150.444° SSE
47 mins2025-05-10 17:27:03.919Z183.784° SSW2025-05-10 17:50:03.919Z127.321° SE27.571°2025-05-10 18:14:03.919Z108.607° ESE
|